Theta_e
311 314 316 317 318 316 315 313 310 310 308 302 304 305 306 307 305 306 308 305 306 306 308 309 310 312 314 315 320 319 322 326 325 326 326 322 322 318 314 312 310 308 310 309 309
309 309 312 314 318 318 315 314 309 309 308 304 301 304 305 306 307 311 306 306 305 305 307 309 310 311 312 317 319 319 322 326 321 323 323 321 321 318 316 313 309 309 308 309 309
308 306 307 312 314 318 317 315 312 309 307 305 300 302 305 307 312 309 307 307 304 304 308 309 309 312 314 317 319 320 320 322 321 322 322 321 319 318 315 316 310 310 307 308 309
307 305 305 306 312 315 318 316 313 309 308 306 302 302 305 311 308 310 304 305 302 305 309 308 309 312 315 319 318 319 316 319 320 319 321 320 318 320 317 315 313 309 308 308 307
306 305 303 304 305 312 317 317 314 311 309 307 303 303 308 311 310 310 304 304 303 306 308 308 309 312 316 317 319 319 316 317 319 318 319 318 319 319 313 309 308 308 308 307 307
306 305 303 302 303 307 312 317 312 311 310 306 303 305 310 308 307 311 307 305 306 307 307 308 310 311 314 316 317 315 316 317 319 318 318 320 317 318 312 308 308 309 307 307 307
306 305 304 302 303 307 312 317 312 310 307 304 304 307 308 307 306 308 306 307 307 308 307 308 311 314 315 317 314 314 315 315 317 317 317 314 317 316 310 309 309 308 307 307 308
306 305 304 302 306 309 312 316 311 308 309 305 303 308 304 305 305 306 307 306 307 308 309 310 311 314 315 313 315 316 314 316 315 315 311 314 316 315 309 309 309 308 306 307 306
306 305 304 302 310 313 314 315 309 310 310 308 305 308 304 302 304 305 307 307 307 308 309 309 313 314 315 314 316 316 317 318 315 312 311 313 316 311 308 309 309 307 306 306 305
307 305 304 305 313 313 315 310 311 311 312 313 310 303 302 303 305 305 307 307 307 308 309 310 311 311 312 314 317 318 318 317 317 313 311 311 311 310 308 307 307 307 306 306 306
307 305 304 306 313 314 311 312 312 312 313 304 303 303 303 304 304 304 306 307 307 308 304 309 309 311 311 312 315 316 317 316 311 309 313 312 311 311 308 306 306 305 306 308 307
306 305 303 305 313 312 312 311 311 309 314 312 311 305 304 304 304 305 306 306 307 306 306 308 306 308 309 311 312 313 314 313 309 309 311 311 309 308 308 307 307 307 305 307 307
306 305 303 305 313 311 313 311 307 304 308 312 311 305 304 304 304 304 305 305 306 305 307 307 307 307 308 309 311 312 313 313 312 308 307 306 304 305 305 306 306 306 307 307 308
305 304 303 305 311 311 312 310 308 307 312 313 311 309 305 305 305 305 306 306 305 305 305 308 307 307 307 308 310 312 312 311 310 308 308 306 305 304 304 305 306 307 304 306 307
305 304 303 304 310 312 312 311 309 311 319 311 310 306 305 304 304 305 305 306 305 306 306 306 307 307 310 310 311 312 311 310 310 309 309 307 305 303 303 305 304 305 306 306 306
305 304 302 307 308 311 312 311 309 314 315 308 306 305 305 305 305 305 305 305 306 307 305 306 305 307 308 307 310 307 308 307 306 306 308 307 304 304 307 306 306 306 303 306 303
306 305 302 303 308 311 312 310 312 313 306 307 307 306 304 306 306 306 305 305 305 305 305 306 306 305 305 307 307 308 306 309 306 307 308 305 305 307 306 306 307 307 304 302 305
306 304 303 304 305 310 311 310 313 302 312 308 308 306 306 306 306 306 305 305 304 304 302 304 305 306 305 307 307 307 305 308 303 313 308 303 306 307 306 305 304 304 307 301 302
306 305 303 302 305 309 311 312 307 305 311 309 308 307 307 305 306 305 305 304 303 303 304 303 304 305 305 304 307 307 309 308 307 297 305 305 305 305 307 305 304 305 308 304 302
306 304 302 302 305 308 309 312 306 311 309 308 309 306 304 304 305 305 305 304 305 303 303 305 306 305 305 304 305 306 306 307 305 303 306 305 306 307 308 309 307 304 304 304 302
305 304 302 301 305 306 309 307 308 309 310 309 309 309 307 305 306 306 306 307 306 304 303 304 306 305 304 304 305 306 306 306 305 308 310 309 307 305 307 310 309 306 302 303 302
304 303 302 302 303 303 307 306 306 309 311 311 311 309 307 305 307 306 308 307 306 305 305 305 305 305 304 305 305 305 306 305 305 306 303 308 307 307 307 308 308 307 306 303 302
301 299 303 302 302 302 305 306 307 311 311 312 312 309 307 305 305 306 307 306 305 305 306 306 308 300 304 302 304 305 305 306 305 304 305 307 304 303 307 309 308 307 307 304 302
296 301 302 302 298 300 303 307 306 306 308 311 311 308 307 305 306 306 307 306 306 306 309 307 308 303 303 304 303 305 305 305 305 306 305 306 306 305 304 304 306 308 307 305 302
295 300 301 303 301 299 301 305 306 305 307 309 308 309 307 303 307 307 307 306 305 306 306 304 302 306 305 306 306 305 305 304 305 306 306 305 303 303 305 305 306 306 304 305 303
297 299 300 301 301 299 301 301 305 305 305 305 307 311 309 304 306 307 306 304 304 305 305 304 304 304 303 307 307 308 306 305 304 304 304 305 305 304 303 304 303 303 305 305 304
291 293 298 301 301 300 299 301 303 305 304 306 307 311 311 310 308 307 306 307 305 304 303 301 300 301 304 308 310 308 309 307 306 303 305 305 306 304 303 302 304 304 302 304 304
Wind_Speed
7 7 7 6 7 6 9 9 8 7 7 7 7 6 5 4 2 1 3 3 8 3 7 5 4 5 4 2 1 2 3 3 2 7 6 4 3 3 5 7 5 7 2 12 32
8 7 8 7 5 8 7 9 9 8 8 7 6 5 4 4 2 4 3 7 7 6 8 7 4 3 2 3 2 3 2 2 4 4 7 7 6 6 4 4 5 5 12 28 30
7 7 7 8 5 8 6 7 8 9 8 8 5 4 3 2 2 2 8 11 9 10 9 4 5 3 2 2 3 1 2 2 5 4 10 6 5 4 8 2 7 11 13 18 25
9 8 7 7 8 5 8 6 8 7 7 7 5 3 2 1 3 3 3 9 10 10 6 2 1 4 3 4 3 4 4 3 3 5 5 7 7 4 3 5 6 17 22 17 15
10 10 10 9 9 8 7 6 6 6 6 7 4 1 0 1 4 6 2 7 10 8 6 3 2 4 4 4 2 4 2 4 1 7 5 8 5 5 5 6 15 20 17 12 16
12 12 13 13 11 10 7 8 5 6 8 7 2 1 1 3 1 4 3 7 6 6 5 4 1 3 4 2 4 4 5 5 1 4 3 4 2 4 3 8 11 13 12 12 17
14 12 13 15 15 11 9 8 5 6 6 4 2 2 2 8 2 3 5 3 6 2 1 3 1 1 2 4 3 9 4 3 2 3 2 2 2 6 8 8 11 10 9 10 18
16 14 15 15 15 14 11 10 5 4 3 2 2 2 5 3 4 4 5 3 7 3 2 1 0 1 2 2 4 4 5 3 2 7 1 4 7 3 11 12 10 10 9 10 12
17 13 15 17 13 14 13 11 5 4 3 3 3 3 5 1 3 6 6 2 5 4 2 1 2 3 3 6 4 1 3 4 2 8 3 3 5 1 7 9 10 10 10 10 9
16 12 12 13 11 14 16 11 10 6 4 1 6 2 3 3 4 6 7 6 2 5 4 2 3 3 2 3 6 5 3 3 5 6 5 4 8 5 8 9 11 11 10 11 11
16 13 11 11 10 20 23 11 6 3 6 6 3 2 4 3 5 4 6 4 4 1 5 3 4 8 9 5 3 6 3 6 2 4 4 6 7 10 11 8 9 10 11 15 16
17 14 11 11 16 23 25 2 3 2 3 15 5 2 3 5 3 3 7 5 4 5 4 5 9 6 7 5 7 3 1 2 2 1 3 2 10 11 9 11 14 15 13 16 12
18 15 10 10 18 25 18 4 3 3 1 2 5 3 4 5 4 8 8 4 4 5 5 7 4 10 7 4 6 4 3 1 2 2 0 3 8 6 7 8 8 13 12 14 19
21 16 12 7 15 21 12 6 4 3 3 5 6 7 6 4 2 7 14 3 4 9 7 4 4 8 5 7 7 5 4 5 5 4 3 3 5 6 8 9 10 17 13 15 16
23 20 16 16 5 11 10 15 6 1 2 3 6 10 7 6 8 2 4 2 7 5 7 8 1 5 4 4 5 4 3 7 4 4 2 2 1 8 6 7 10 11 16 15 15
26 22 17 16 4 12 17 19 3 2 9 4 4 8 7 5 2 3 3 1 2 5 6 2 1 2 3 3 4 5 6 8 5 3 1 7 7 5 5 6 5 5 11 15 13
30 25 23 16 6 17 21 8 3 4 3 6 6 6 5 6 4 4 8 7 7 6 3 2 2 3 1 6 5 4 6 2 3 2 6 1 4 9 9 10 5 4 9 11 13
33 27 25 17 20 22 19 3 5 7 8 4 6 10 5 6 2 6 10 6 5 5 4 6 2 5 3 5 8 7 7 5 7 4 5 2 6 7 10 8 6 7 5 7 10
35 30 24 23 21 28 6 11 10 8 9 8 7 6 5 6 7 5 10 8 9 9 7 5 4 2 3 2 5 5 5 5 6 2 3 4 7 10 11 11 8 7 3 5 8
31 19 19 29 23 23 8 14 4 5 7 11 6 6 8 10 5 6 11 7 6 11 3 7 4 2 2 1 1 3 3 1 3 2 3 4 4 7 9 3 1 6 8 7 4
19 7 22 33 21 7 6 10 4 6 0 6 6 6 7 9 7 5 14 3 10 14 7 5 4 3 1 6 8 3 4 3 4 5 5 1 5 6 6 1 4 6 8 8 7
11 7 32 37 9 5 14 8 4 8 2 4 4 5 8 9 6 6 9 3 9 13 13 4 5 4 6 2 1 2 3 6 4 4 4 3 7 1 5 3 4 6 6 5 6
7 4 36 34 12 12 4 7 5 6 6 4 5 4 5 7 5 5 6 3 1 9 15 7 1 3 5 5 3 4 4 3 2 2 6 5 5 4 1 2 5 6 4 2 4
1 6 6 10 4 14 21 7 5 3 2 4 3 3 7 6 3 8 5 4 4 3 10 7 4 7 7 4 5 4 4 4 4 5 4 10 4 7 10 7 6 4 4 6 8
3 5 6 14 18 20 22 16 14 8 7 6 2 5 6 5 3 6 4 3 6 4 5 5 4 3 3 6 3 6 4 6 12 10 7 8 9 10 14 16 18 5 5 6 8
3 3 5 15 25 17 20 15 22 7 9 6 7 5 5 6 6 7 8 4 4 3 4 3 1 3 4 4 6 3 6 7 8 8 17 16 26 11 14 17 13 12 5 8 8
5 6 4 16 22 17 20 22 25 17 5 10 10 8 9 5 9 5 8 6 7 6 3 4 5 3 2 2 5 6 19 12 8 7 14 12 21 7 8 11 17 16 9 10 11
Wind_Direction
297 281 276 311 277 304 334 340 324 316 313 317 315 318 324 312 278 176 236 208 216 233 194 186 223 249 286 288 273 46 45 325 22 136 168 152 104 33 66 86 51 353 127 147 148
293 300 286 271 288 266 307 334 331 316 313 317 305 309 313 323 292 249 217 216 215 208 193 187 185 227 331 233 286 96 91 43 322 100 150 147 135 129 100 106 51 45 82 127 144
281 304 302 273 266 258 275 317 326 314 315 315 308 306 320 348 312 216 228 227 222 198 186 229 286 214 197 230 229 201 138 340 1 17 130 124 123 136 133 205 183 174 158 146 150
282 284 302 299 262 270 253 289 312 307 310 309 306 308 316 50 168 330 234 201 194 185 181 166 213 166 192 212 242 104 34 70 2 8 108 134 136 125 150 195 201 161 158 154 163
289 290 292 299 302 270 252 252 292 294 301 302 292 300 249 269 263 328 194 181 180 172 176 169 167 169 197 212 148 106 162 57 20 38 91 113 121 154 129 101 113 138 155 162 171
292 290 290 291 295 283 255 237 262 278 287 286 253 204 287 262 24 301 202 167 154 169 190 199 214 238 263 225 125 117 121 126 80 61 51 111 177 129 204 139 125 150 168 175 179
275 287 291 291 293 279 247 231 240 274 272 221 184 213 270 234 193 271 140 139 152 178 230 204 341 172 308 125 165 136 98 75 142 160 174 91 286 216 158 151 150 167 176 186 189
261 275 290 290 288 265 231 211 204 248 222 168 160 242 240 219 227 179 136 163 171 149 36 79 321 284 97 147 57 130 95 125 249 158 218 113 260 206 169 152 174 180 190 192 202
245 262 285 292 283 261 208 193 161 197 186 159 160 209 272 149 165 169 163 155 133 113 79 118 16 129 47 102 51 321 184 170 165 191 125 172 266 349 184 170 186 194 195 196 198
241 249 278 290 263 196 182 161 159 195 162 263 276 21 209 202 151 170 180 165 132 127 64 96 51 93 54 118 188 182 195 197 189 215 167 187 254 228 213 190 203 199 196 195 196
235 243 270 280 183 170 153 149 141 231 213 187 209 231 120 109 136 173 162 146 110 87 148 212 115 197 198 175 184 136 173 212 84 301 145 227 252 245 225 225 221 215 204 199 201
227 234 256 257 182 170 161 198 214 161 186 226 263 226 150 168 108 182 163 135 132 171 140 61 225 193 169 200 232 267 236 313 56 40 139 289 265 253 236 220 208 210 208 204 194
218 224 232 241 190 175 182 197 179 180 83 155 177 194 194 173 186 191 147 172 142 157 159 157 234 176 183 186 206 211 179 199 167 161 147 6 293 268 270 234 213 221 210 200 193
212 212 214 215 168 188 201 166 94 146 77 203 190 229 152 204 175 171 184 156 179 181 157 198 285 163 162 204 161 210 205 117 122 74 235 84 278 291 264 254 212 217 205 206 196
209 207 210 195 173 175 176 181 92 321 254 138 153 156 146 164 134 219 150 58 157 171 118 219 211 160 168 192 124 186 84 148 134 120 52 283 335 269 263 256 240 217 216 208 193
211 204 207 187 223 165 181 182 95 152 225 167 136 174 144 158 105 116 128 50 152 91 60 135 277 32 135 58 112 143 74 34 39 92 343 215 167 272 236 229 266 214 217 207 189
213 201 204 204 176 174 167 124 132 189 259 202 179 173 179 150 131 166 163 169 150 110 151 59 354 330 76 72 29 90 92 14 342 356 224 40 152 250 273 254 237 233 236 212 196
209 201 202 190 195 169 163 130 197 208 200 147 131 121 182 130 121 173 142 172 254 112 112 145 274 183 183 172 175 178 159 156 201 196 247 14 223 254 246 279 266 250 260 192 184
200 188 190 197 194 180 199 190 204 191 170 130 104 123 215 171 133 149 186 179 201 179 135 139 211 8 52 8 147 218 209 168 107 24 44 208 279 290 277 275 242 237 247 224 198
179 171 187 193 191 176 190 237 234 213 130 141 147 169 170 175 134 158 169 194 196 189 166 187 107 0 305 276 67 148 175 91 7 144 236 275 255 236 288 342 309 248 230 234 194
175 173 177 188 172 200 208 219 203 256 196 143 156 142 172 173 144 190 185 233 181 191 152 157 105 298 90 211 174 178 184 203 139 160 179 261 262 223 253 259 348 279 235 222 205
166 188 166 166 179 204 218 157 222 248 95 207 127 129 161 155 147 180 197 232 182 159 180 195 113 155 198 237 39 56 237 168 147 210 225 157 258 277 86 30 342 319 305 220 199
159 136 168 164 184 195 190 178 224 186 179 169 179 177 154 146 126 161 173 340 152 164 156 175 179 76 356 350 349 207 232 179 133 92 212 170 261 318 134 3 327 346 1 193 196
201 148 164 184 185 180 187 191 181 256 286 157 177 127 115 144 85 178 136 20 360 107 129 113 153 162 183 172 129 172 217 210 169 229 199 232 296 308 304 306 319 281 230 191 184
226 183 182 176 196 189 182 171 180 161 219 192 14 176 132 119 89 135 120 110 27 355 74 114 156 133 119 113 107 165 181 202 222 232 227 251 226 244 273 293 311 261 223 198 201
201 260 169 177 180 177 184 194 189 165 151 188 136 154 104 135 170 160 131 123 174 38 90 22 123 83 341 83 123 205 232 246 232 243 259 268 268 256 280 284 278 291 255 237 232
152 251 297 174 181 180 190 184 193 172 230 147 137 103 88 122 99 85 83 90 137 131 117 103 119 80 266 57 76 320 240 216 217 193 236 244 253 240 245 256 266 270 246 231 226